When you browse on this site, cookies collect data to enhance your experience and personalize the content and advertising you see.
Visit our Privacy Policy to learn more. By continuing to use the site, you agree to this use of cookies and data.
  • In Hungary
  • List of Countries
  • For 7 days
  • Water Temperature
  • Satellite Maps
  • Weather Map
  • News
  • Weather Widgets
  • user-avatar
    Login

    Hourly Weather Panyu

    Today, 21 April, Sunday

    Time Temperature Precipitation Wind Pressure Humidity
    00:00 +29°C° 0.8 mm 3 mps 754 mmHg 80%
    01:00 +29°C° 0.8 mm 3 mps 754 mmHg 80%
    02:00 +29°C° 0 mm 2 mps 754 mmHg 80%
    03:00 +29°C° 0.3 mm 2 mps 754 mmHg 80%
    04:00 +29°C° 0.3 mm 3 mps 754 mmHg 81%
    05:00 +28°C° 0.3 mm 3 mps 754 mmHg 82%
    06:00 +29°C° 1.1 mm 3 mps 754 mmHg 81%
    07:00 +29°C° 1.1 mm 3 mps 755 mmHg 80%
    08:00 +30°C° 0 mm 3 mps 755 mmHg 78%
    09:00 +31°C° 0.8 mm 3 mps 755 mmHg 73%
    10:00 +33°C° 0.8 mm 3 mps 755 mmHg 69%
    11:00 +34°C° 0.8 mm 3 mps 755 mmHg 65%
    12:00 +35°C° 1.1 mm 4 mps 755 mmHg 61%
    13:00 +36°C° 1.1 mm 4 mps 755 mmHg 57%
    14:00 +37°C° 1.1 mm 5 mps 754 mmHg 53%
    15:00 +36°C° 1.7 mm 5 mps 754 mmHg 55%
    16:00 +36°C° 1.7 mm 5 mps 754 mmHg 56%
    17:00 +36°C° 1.7 mm 5 mps 753 mmHg 57%
    18:00 +35°C° 0.6 mm 5 mps 753 mmHg 60%
    19:00 +34°C° 0.6 mm 5 mps 754 mmHg 62%
    20:00 +34°C° 0.6 mm 5 mps 754 mmHg 65%
    21:00 +33°C° 0 mm 5 mps 754 mmHg 66%
    22:00 +33°C° 0 mm 4 mps 755 mmHg 67%
    23:00 +33°C° 0 mm 4 mps 755 mmHg 68%

    Tomorrow, 22 April, Monday

    Time Temperature Precipitation Wind Pressure Humidity
    00:00 +32°C° 0 mm 4 mps 755 mmHg 70%
    01:00 +31°C° 0 mm 3 mps 755 mmHg 72%
    02:00 +31°C° 0 mm 3 mps 755 mmHg 73%
    03:00 +31°C° 0 mm 3 mps 755 mmHg 74%
    04:00 +31°C° 0 mm 3 mps 755 mmHg 74%
    05:00 +30°C° 0 mm 3 mps 755 mmHg 74%
    06:00 +30°C° 0 mm 3 mps 755 mmHg 73%
    07:00 +31°C° 0 mm 3 mps 755 mmHg 73%
    08:00 +31°C° 0 mm 3 mps 756 mmHg 72%
    09:00 +31°C° 0 mm 3 mps 756 mmHg 69%
    10:00 +33°C° 0 mm 3 mps 756 mmHg 66%
    11:00 +33°C° 0 mm 3 mps 757 mmHg 63%
    12:00 +34°C° 0 mm 3 mps 756 mmHg 62%
    13:00 +34°C° 0 mm 4 mps 756 mmHg 61%
    14:00 +34°C° 0 mm 4 mps 756 mmHg 60%
    15:00 +34°C° 0 mm 4 mps 756 mmHg 59%
    16:00 +34°C° 0 mm 4 mps 755 mmHg 58%
    17:00 +34°C° 0 mm 4 mps 755 mmHg 57%
    18:00 +34°C° 0 mm 4 mps 755 mmHg 59%
    19:00 +33°C° 0 mm 4 mps 756 mmHg 62%
    20:00 +33°C° 0 mm 4 mps 756 mmHg 64%
    21:00 +32°C° 0 mm 4 mps 756 mmHg 66%
    22:00 +31°C° 0 mm 3 mps 757 mmHg 67%
    23:00 +30°C° 0 mm 3 mps 757 mmHg 69%

    Day after tomorrow, 23 April, Tuesday

    Time Temperature Precipitation Wind Pressure Humidity
    00:00 +30°C° 0 mm 3 mps 757 mmHg 71%
    01:00 +30°C° 0 mm 3 mps 756 mmHg 73%
    02:00 +29°C° 0 mm 3 mps 756 mmHg 75%
    03:00 +29°C° 0 mm 3 mps 756 mmHg 77%
    04:00 +29°C° 0 mm 3 mps 756 mmHg 78%
    05:00 +29°C° 0 mm 2 mps 756 mmHg 79%
    06:00 +29°C° 0 mm 2 mps 756 mmHg 77%
    07:00 +30°C° 0 mm 2 mps 757 mmHg 74%
    08:00 +30°C° 0 mm 2 mps 757 mmHg 72%
    09:00 +31°C° 0 mm 3 mps 758 mmHg 67%
    10:00 +33°C° 0 mm 3 mps 758 mmHg 63%
    11:00 +34°C° 0 mm 3 mps 758 mmHg 58%
    12:00 +34°C° 0 mm 3 mps 757 mmHg 56%
    13:00 +35°C° 0 mm 4 mps 757 mmHg 54%
    14:00 +36°C° 0 mm 4 mps 756 mmHg 53%
    15:00 +36°C° 0 mm 4 mps 756 mmHg 52%
    16:00 +36°C° 0 mm 4 mps 755 mmHg 52%
    17:00 +36°C° 0 mm 5 mps 755 mmHg 52%
    18:00 +35°C° 0 mm 5 mps 755 mmHg 56%
    19:00 +34°C° 0 mm 5 mps 755 mmHg 59%
    20:00 +33°C° 0 mm 4 mps 756 mmHg 63%
    21:00 +33°C° 0 mm 4 mps 756 mmHg 66%
    22:00 +32°C° 0 mm 4 mps 756 mmHg 69%
    23:00 +30°C° 0 mm 4 mps 756 mmHg 72%

    24 April, Wednesday

    Time Temperature Precipitation Wind Pressure Humidity
    00:00 +30°C° 0 mm 3 mps 756 mmHg 74%
    01:00 +30°C° 0 mm 3 mps 756 mmHg 76%
    02:00 +29°C° 0 mm 3 mps 756 mmHg 78%
    03:00 +29°C° 0 mm 3 mps 756 mmHg 77%
    04:00 +29°C° 0 mm 3 mps 756 mmHg 77%
    05:00 +29°C° 0 mm 3 mps 756 mmHg 76%
    06:00 +30°C° 0 mm 3 mps 757 mmHg 75%
    07:00 +30°C° 0 mm 3 mps 757 mmHg 74%
    08:00 +30°C° 0 mm 3 mps 757 mmHg 73%
    09:00 +31°C° 0 mm 3 mps 758 mmHg 69%
    10:00 +33°C° 0 mm 4 mps 758 mmHg 64%
    11:00 +33°C° 0 mm 4 mps 758 mmHg 60%
    12:00 +35°C° 0 mm 4 mps 757 mmHg 55%
    13:00 +36°C° 0 mm 4 mps 757 mmHg 50%
    14:00 +37°C° 0 mm 4 mps 756 mmHg 45%
    15:00 +37°C° 0 mm 4 mps 756 mmHg 46%
    16:00 +37°C° 0 mm 5 mps 755 mmHg 47%
    17:00 +37°C° 0 mm 5 mps 755 mmHg 49%
    18:00 +36°C° 0 mm 5 mps 755 mmHg 52%
    19:00 +35°C° 0 mm 5 mps 755 mmHg 56%
    20:00 +34°C° 0 mm 5 mps 756 mmHg 60%
    21:00 +33°C° 0 mm 4 mps 756 mmHg 63%
    22:00 +32°C° 0 mm 4 mps 756 mmHg 66%
    23:00 +32°C° 0 mm 4 mps 756 mmHg 69%

    25 April, Thursday

    Time Temperature Precipitation Wind Pressure Humidity
    00:00 +30°C° 0 mm 4 mps 756 mmHg 72%
    01:00 +30°C° 0 mm 3 mps 755 mmHg 74%
    02:00 +29°C° 0 mm 3 mps 755 mmHg 76%
    03:00 +29°C° 0 mm 3 mps 755 mmHg 75%
    04:00 +29°C° 0 mm 2 mps 755 mmHg 74%
    05:00 +29°C° 0 mm 2 mps 755 mmHg 74%
    06:00 +30°C° 0 mm 2 mps 756 mmHg 72%
    07:00 +30°C° 0 mm 2 mps 756 mmHg 70%
    08:00 +30°C° 0 mm 3 mps 757 mmHg 68%
    09:00 +31°C° 0 mm 3 mps 757 mmHg 64%
    10:00 +33°C° 0 mm 3 mps 757 mmHg 60%
    11:00 +34°C° 0 mm 3 mps 757 mmHg 56%
    12:00 +35°C° 0 mm 3 mps 756 mmHg 52%
    13:00 +37°C° 0 mm 3 mps 755 mmHg 48%
    14:00 +38°C° 0 mm 4 mps 755 mmHg 44%
    15:00 +38°C° 0 mm 4 mps 754 mmHg 45%
    16:00 +37°C° 0 mm 5 mps 754 mmHg 46%
    17:00 +37°C° 0 mm 5 mps 754 mmHg 48%
    18:00 +36°C° 1.4 mm 4 mps 754 mmHg 52%
    19:00 +35°C° 1.4 mm 4 mps 755 mmHg 56%
    20:00 +34°C° 1.4 mm 3 mps 756 mmHg 61%
    21:00 +34°C° 0.2 mm 3 mps 756 mmHg 63%
    22:00 +33°C° 0.2 mm 4 mps 756 mmHg 65%
    23:00 +32°C° 0.2 mm 4 mps 756 mmHg 67%

    26 April, Friday

    Time Temperature Precipitation Wind Pressure Humidity
    00:00 +32°C° 0 mm 4 mps 756 mmHg 69%
    01:00 +32°C° 0 mm 4 mps 756 mmHg 70%
    02:00 +31°C° 0 mm 3 mps 756 mmHg 72%
    03:00 +30°C° 0 mm 3 mps 755 mmHg 72%
    04:00 +30°C° 0 mm 3 mps 755 mmHg 72%
    05:00 +30°C° 0 mm 2 mps 755 mmHg 73%
    06:00 +30°C° 0 mm 3 mps 755 mmHg 72%
    07:00 +31°C° 0 mm 3 mps 756 mmHg 70%
    08:00 +31°C° 0 mm 3 mps 756 mmHg 69%
    09:00 +33°C° 0.4 mm 3 mps 757 mmHg 65%
    10:00 +33°C° 0.4 mm 4 mps 757 mmHg 62%
    11:00 +34°C° 0.4 mm 4 mps 757 mmHg 58%
    12:00 +33°C° 7.9 mm 3 mps 757 mmHg 61%
    13:00 +32°C° 7.9 mm 2 mps 756 mmHg 64%
    14:00 +31°C° 7.9 mm 1 mps 756 mmHg 67%
    15:00 +31°C° 1.6 mm 2 mps 756 mmHg 66%
    16:00 +31°C° 1.6 mm 2 mps 756 mmHg 65%
    17:00 +33°C° 1.6 mm 3 mps 756 mmHg 64%
    18:00 +31°C° 0.8 mm 3 mps 756 mmHg 65%
    19:00 +31°C° 0.8 mm 3 mps 757 mmHg 67%
    20:00 +31°C° 0.8 mm 2 mps 757 mmHg 68%
    21:00 +31°C° 0.2 mm 2 mps 757 mmHg 68%
    22:00 +31°C° 0.2 mm 2 mps 757 mmHg 69%
    23:00 +31°C° 0.2 mm 2 mps 757 mmHg 69%
    Show more